This is the latest recevied weather packets stored in our database for station/object W4SNA-2. If no packets are shown the sender has not sent any weather packets the latest 10 day(s).
| Time | Temp. | Humidity | Pressure | Rain* | Wind** | Luminosity | Snow |
|---|---|---|---|---|---|---|---|
| 1778183968 | 11.11° C | 100% | 1011.7 hPa | 1.02 mm | - | - | - |
| 1778183668 | 11.11° C | 100% | 1011.7 hPa | 1.02 mm | - | - | - |
| 1778183368 | 11.11° C | 100% | 1011.6 hPa | 1.02 mm | - | - | - |
| 1778183067 | 11.11° C | 100% | 1011.8 hPa | 1.02 mm | - | - | - |
| 1778182765 | 11.67° C | 100% | 1011.8 hPa | 1.27 mm | - | - | - |
| 1778182465 | 11.11° C | 100% | 1011.5 hPa | 1.27 mm | - | - | - |
| 1778182165 | 11.11° C | 100% | 1011.9 hPa | 1.02 mm | - | - | - |
| 1778181867 | 11.11° C | 100% | 1012.2 hPa | 0.51 mm | - | - | - |
| 1778181565 | 11.11° C | 100% | 1011.6 hPa | 0.25 mm | - | - | - |
| 1778181265 | 11.11° C | 100% | 1011.6 hPa | 0.25 mm | - | - | - |
| 1778180965 | 11.11° C | 100% | 1011.5 hPa | 0.25 mm | - | - | - |
| 1778180665 | 11.11° C | 100% | 1011.5 hPa | 0.25 mm | - | - | - |
| 1778180495 | 11.11° C | 100% | 1011.7 hPa | 0.25 mm | - | - | - |
| 1778180365 | 11.11° C | 100% | 1011.7 hPa | 0.25 mm | - | - | - |
| 1778180065 | 11.11° C | 100% | 1011.6 hPa | 0.25 mm | - | - | - |
| 1778179765 | 11.11° C | 100% | 1011.7 hPa | 0.25 mm | - | - | - |
| 1778179465 | 11.11° C | 100% | 1011.6 hPa | 0.25 mm | - | - | - |
| 1778179167 | 11.11° C | 100% | 1011.8 hPa | 0 mm | - | - | - |
| 1778178726 | 11.11° C | 100% | 1011.7 hPa | 0 mm | - | - | - |
| 1778178424 | 11.67° C | 100% | 1011.6 hPa | 0 mm | - | - | - |
| 1778178125 | 11.67° C | 100% | 1011.7 hPa | 0 mm | - | - | - |
| 1778177825 | 11.67° C | 100% | 1011.7 hPa | 0 mm | - | - | - |
| 1778177525 | 11.67° C | 100% | 1011.7 hPa | 0 mm | - | - | - |
| 1778177225 | 11.67° C | 100% | 1011.6 hPa | 0 mm | - | - | - |
| 1778176924 | 11.67° C | 100% | 1011.6 hPa | 0.51 mm | - | - | - |
* Rain latest hour (hover to see other rain measurements)
** Current wind speed in m/s (hover to see current wind gust speed)